Weather History for KSDF - January, 2011

Change the Weather History Date:

Tuesday, January 4, 2011

  Actual Average Record
Temperature  
Mean Temperature 37 °F 35 °F  
Max Temperature 47 °F 43 °F 68 °F (1993)
Min Temperature 26 °F 27 °F -4 °F (1879)
Degree Days  
Heating Degree Days 28 30  
Month to date heating degree days 118 120  
Since 1 July heating degree days 1738 1696  
Cooling Degree Days 0 0  
Month to date cooling degree days 0 0  
Year to date cooling degree days 0 0  
Moisture  
Dew Point 17 °F    
Average Humidity 46    
Maximum Humidity 58    
Minimum Humidity 34    
Precipitation  
Precipitation 0.00 in 0.11 in 1.54 in (1952)
Month to date precipitation 0.52 0.43  
Year to date precipitation 0.52 0.43  
Snow  
Snow 0.00 in 0.10 in 3.10 in (1980)
Month to date snowfall 0.0 0.4  
Since 1 July snowfall 6.3 3.2  
Snow Depth 0.00 in    
Sea Level Pressure  
Sea Level Pressure 30.07 in    
Wind  
Wind Speed 8 mph (West)    
Max Wind Speed 21 mph    
Max Gust Speed 25 mph    
Visibility 10 miles    
Events      
T = Trace of Precipitation, MM = Missing Value Source: NWS Daily Summary

Daily Weather History Graph

Daily Weather History Graph

Search for Another Location

Airport or City:

Trip Planner

Search our weather history database for the weather conditions in past years. The results will help you decide how hot, cold, wet, or windy it might be!

Date:

Astronomy

Jan. 04, 2011 Rise Set
Actual Time 7:59 AM EST 5:36 PM EST
Civil Twilight 7:30 AM EST 6:05 PM EST
Nautical Twilight 6:57 AM EST 6:38 PM EST
Astronomical Twilight 6:25 AM EST 7:10 PM EST
Moon 8:08 AM EST (1/4) 6:08 PM EST (1/4)
Length of Visible Light 10h 35m
Length of Day
9h 36m
New Moon, 0% of the Moon is Illuminated
Jan 4
New Moon
Jan 12
First Quarter
Jan 19
Full
Jan 26
Last Quarter
Feb 2
New

Hourly Weather History & Observations

Time (EST) Temp. Windchill Dew Point Humidity Pressure Visibility Wind Dir Wind Speed Gust Speed Precip Events Conditions
12:56 AM 30.9 °F 25.2 °F 17.1 °F 57% 30.09 in 10.0 mi SE 5.8 mph - N/A   Mostly Cloudy
1:56 AM 35.1 °F 30.1 °F 16.0 °F 46% 30.08 in 10.0 mi SSW 5.8 mph - N/A   Overcast
2:56 AM 36.0 °F 30.3 °F 15.1 °F 43% 30.07 in 10.0 mi South 6.9 mph - N/A   Mostly Cloudy
3:56 AM 36.0 °F 30.3 °F 15.1 °F 43% 30.05 in 10.0 mi SW 6.9 mph - N/A   Clear
4:56 AM 36.0 °F 29.6 °F 16.0 °F 44% 30.03 in 10.0 mi SSW 8.1 mph - N/A   Clear
5:56 AM 35.1 °F 30.1 °F 15.1 °F 44% 30.04 in 10.0 mi SSW 5.8 mph - N/A   Clear
6:56 AM 34.0 °F 29.8 °F 16.0 °F 48% 30.04 in 10.0 mi Variable 4.6 mph - N/A   Clear
7:56 AM 34.0 °F 28.8 °F 17.1 °F 50% 30.04 in 10.0 mi SSW 5.8 mph - N/A   Partly Cloudy
8:56 AM 36.0 °F 31.1 °F 18.0 °F 48% 30.06 in 10.0 mi SW 5.8 mph - N/A   Partly Cloudy
9:56 AM 39.0 °F 31.8 °F 19.9 °F 46% 30.06 in 10.0 mi West 11.5 mph - N/A   Partly Cloudy
10:56 AM 39.9 °F 32.9 °F 21.9 °F 49% 30.09 in 10.0 mi West 11.5 mph - N/A   Partly Cloudy
11:56 AM 43.0 °F 38.2 °F 23.0 °F 45% 30.07 in 10.0 mi West 8.1 mph - N/A   Partly Cloudy
12:56 PM 44.1 °F 40.1 °F 21.0 °F 40% 30.05 in 10.0 mi West 6.9 mph - N/A   Partly Cloudy
1:56 PM 46.0 °F 40.2 °F 19.9 °F 35% 30.04 in 10.0 mi WNW 12.7 mph 24.2 mph N/A   Partly Cloudy
2:56 PM 46.0 °F 39.6 °F 21.0 °F 37% 30.04 in 10.0 mi West 15.0 mph 20.7 mph N/A   Partly Cloudy
3:56 PM 44.1 °F 36.5 °F 19.0 °F 37% 30.04 in 10.0 mi West 17.3 mph 24.2 mph N/A   Partly Cloudy
4:56 PM 42.1 °F 36.1 °F 19.9 °F 41% 30.06 in 10.0 mi West 10.4 mph - N/A   Partly Cloudy
5:56 PM 37.0 °F 30.4 °F 16.0 °F 42% 30.08 in 10.0 mi WNW 9.2 mph - N/A   Clear
6:56 PM 35.1 °F 27.9 °F 16.0 °F 46% 30.09 in 10.0 mi WNW 9.2 mph - N/A   Clear
7:56 PM 32.0 °F 24.8 °F 17.1 °F 54% 30.10 in 10.0 mi WNW 8.1 mph - N/A   Clear
8:56 PM 28.9 °F 21.9 °F 15.1 °F 56% 30.12 in 10.0 mi WNW 6.9 mph - N/A   Clear
9:56 PM 28.9 °F 22.8 °F 15.1 °F 56% 30.12 in 10.0 mi WNW 5.8 mph - N/A   Clear
10:56 PM 28.9 °F 23.9 °F 15.1 °F 56% 30.13 in 10.0 mi NW 4.6 mph - N/A   Clear
11:56 PM 26.1 °F 20.5 °F 14.0 °F 60% 30.13 in 10.0 mi NNW 4.6 mph - N/A   Clear